Content
SEND FEEDBACK

Daily
Averages
Monthly
Summary
United States of America

HOWELL, WYOMING


Home > North America > United States > Wyoming
Elevation: 7263 feet     Latitude: 41 19N     Longitude: 105 41W

WEATHER
 
SELECT A DAY
Number of Records: 197,457;   Date Range: 1/1/95 - 11/22/14
 
SHARE

PRINT THIS DATA

[ ← Previous Day ]
WEATHER ALMANAC - JANUARY 3, 2013
[ Next Day → ]
[ °C ]   °F
Weather ElementAverageHighLow
Temperature1 °F16 °F (12:53 pm)-8 °F (7:53 am)
Dewpoint-5.6 °F1.9 °F (11:53 am)-13 °F (3:53 am)
Humidity74.2 %87 % (7:53 pm)54 % (12:53 pm)
Barometer30.53 in30.63 in (7:53 pm)30.44 in (12:53 pm)
Wind Speed5.3 mph12.7 mph (7:53 am)
Weather ElementAverage
Visibility10 mi
Wind DirectionESE (110.5 °)

Weather ElementTotal
Precipitation---
Heating Degree Days61 (Base 65)
Averaged from 22 records on January 3, 2013
WEATHER CONDITIONS BREAKOUT
WIND DIRECTION BREAKOUT
WEATHER BY HOUR - JANUARY 3, 2013
[ °C ]   °F
Local TimeTemperatureDewpointHumidityBarometerVisibilityWind DirectionWind SpeedGust SpeedPrecipitationEventsConditions
1:53 AM-4.0 °F-9.0 °F79 %30.48 in10.0 miESE (120°)3.5 mphClear
2:53 AM-6.0 °F-11.0 °F79 %30.49 in10.0 miSE (130°)9.2 mphClear
3:53 AM-7.1 °F-13.0 °F75 %30.51 in10.0 miSSE (160°)6.9 mphClear
5:53 AM-7.1 °F-11.9 °F79 %30.54 in10.0 miSSE (150°)8.1 mphClear
6:53 AM-6.0 °F-11.0 °F79 %30.54 in10.0 miSE (130°)10.4 mphClear
7:53 AM-8.0 °F-13.0 °F79 %30.56 in10.0 miSE (140°)12.7 mphClear
8:53 AM-2.9 °F-9.9 °F72 %30.55 in10.0 miNorthClear
9:53 AM1.9 °F-6.0 °F69 %30.54 in10.0 miSSE (150°)9.2 mphClear
10:53 AM8.1 °F-0.9 °F67 %30.51 in10.0 miSE (140°)6.9 mphClear
11:53 AM12.0 °F1.9 °F64 %30.48 in10.0 miSE (130°)5.8 mphClear
12:53 PM16.0 °F1.9 °F54 %30.44 in10.0 miENE (70°)3.5 mphClear
1:53 PM9.0 °F1.9 °F73 %30.49 in10.0 miNNW (330°)6.9 mphClear
2:53 PM10.0 °F0.0 °F64 %30.52 in10.0 miNorth (360°)4.6 mphClear
3:53 PM10.9 °F1.0 °F64 %30.53 in10.0 miNNE (20°)8.1 mphClear
4:53 PM9.0 °F0.0 °F67 %30.51 in10.0 miNE (40°)6.9 mphClear
5:53 PM1.9 °F-2.9 °F80 %30.59 in10.0 miNNW (330°)3.5 mphClear
6:53 PM3.0 °F-2.9 °F76 %30.59 in10.0 miNNE (30°)4.6 mphClear
7:53 PM-2.9 °F-6.0 °F87 %30.63 in10.0 miCalmClear
8:53 PM-5.1 °F-9.0 °F83 %30.60 in10.0 miCalmClear
9:53 PM-6.0 °F-9.9 °F83 %30.58 in10.0 miCalmClear
10:53 PM-2.0 °F-6.0 °F83 %30.53 in10.0 miCalmClear
11:53 PM-2.0 °F-8.0 °F76 %30.50 in10.0 miCalmClear
Hourly data recorded from KLAR, located miles away from Howell, Wyoming







STORIES FROM OUR PARTNERS